Location: Tr�vern
(48.0333°N, 4.6000°W)
Time: 18:59:46
(UTC+00:00)

Cosmos 1697 Rocket - Pass Details

Date: 14 July 2020
Orbit: 834 x 842 km, 71.0° (Epoch: 11 August)

Event Time Altitude Azimuth Distance (km) Brightness Sun altitude
Rises 02:07:13 0° 332° (NNW) 3,399 6.4 -16.6°
Reaches altitude 10° 02:09:41 10° 333° (NNW) 2,459 5.6 -16.4°
Maximum altitude 02:15:20 83° 62° (ENE) 848 2.7 -16.0°
Drops below altitude 10° 02:20:57 10° 151° (SSE) 2,439 4.8 -15.6°
Enters shadow 02:22:29 - 152° (SSE) 3,026 5.3 -15.5°
